• In Hungary
  • List of Countries
  • For 7 days
  • Water Temperature
  • Satellite Maps
  • Weather Map
  • News
  • Weather Widgets
  • user-avatar
    Login

    Hourly Weather Knokke-Heist

    Today, 22 September, Saturday

    Time Temperature Precipitation Wind Pressure Humidity
    00:00 +12°C° 0 mm 8 mps 763 mmHg 67%
    01:00 +11°C° 0 mm 8 mps 763 mmHg 70%
    02:00 +11°C° 0 mm 7 mps 763 mmHg 72%
    03:00 +11°C° 0 mm 7 mps 763 mmHg 74%
    04:00 +11°C° 0 mm 7 mps 763 mmHg 75%
    05:00 +11°C° 0 mm 6 mps 764 mmHg 76%
    06:00 +11°C° 0 mm 6 mps 764 mmHg 76%
    07:00 +12°C° 0.2 mm 7 mps 764 mmHg 73%
    08:00 +14°C° 0.2 mm 7 mps 764 mmHg 70%
    09:00 +15°C° 0.2 mm 8 mps 764 mmHg 67%
    10:00 +15°C° 0.2 mm 8 mps 764 mmHg 66%
    11:00 +15°C° 0.2 mm 7 mps 764 mmHg 65%
    12:00 +15°C° 0.2 mm 7 mps 764 mmHg 64%
    13:00 +14°C° 0.2 mm 6 mps 764 mmHg 69%
    14:00 +14°C° 0.2 mm 6 mps 764 mmHg 73%
    15:00 +13°C° 0.2 mm 5 mps 764 mmHg 78%
    16:00 +12°C° 0.5 mm 5 mps 763 mmHg 81%
    17:00 +12°C° 0.5 mm 4 mps 763 mmHg 83%
    18:00 +11°C° 0.5 mm 4 mps 763 mmHg 85%
    19:00 +11°C° 0.6 mm 4 mps 762 mmHg 87%
    20:00 +11°C° 0.6 mm 4 mps 762 mmHg 88%
    21:00 +10°C° 0.6 mm 4 mps 762 mmHg 89%
    22:00 +10°C° 0.2 mm 4 mps 761 mmHg 90%
    23:00 +11°C° 0.2 mm 3 mps 761 mmHg 90%

    Tomorrow, 23 September, Sunday

    Time Temperature Precipitation Wind Pressure Humidity
    00:00 +11°C° 0.2 mm 3 mps 760 mmHg 91%
    01:00 +11°C° 0.1 mm 3 mps 760 mmHg 92%
    02:00 +12°C° 0.1 mm 2 mps 759 mmHg 92%
    03:00 +12°C° 0.1 mm 2 mps 759 mmHg 92%
    04:00 +12°C° 0.1 mm 2 mps 759 mmHg 92%
    05:00 +12°C° 0.1 mm 2 mps 759 mmHg 92%
    06:00 +12°C° 0.1 mm 2 mps 759 mmHg 92%
    07:00 +12°C° 0.3 mm 2 mps 759 mmHg 91%
    08:00 +12°C° 0.3 mm 3 mps 759 mmHg 89%
    09:00 +12°C° 0.3 mm 3 mps 758 mmHg 88%
    10:00 +12°C° 4.1 mm 5 mps 758 mmHg 89%
    11:00 +10°C° 4.1 mm 6 mps 758 mmHg 91%
    12:00 +10°C° 4.1 mm 8 mps 757 mmHg 92%
    13:00 +10°C° 1.4 mm 8 mps 758 mmHg 91%
    14:00 +10°C° 1.4 mm 8 mps 759 mmHg 89%
    15:00 +9°C° 1.4 mm 8 mps 760 mmHg 87%
    16:00 +9°C° 0.7 mm 8 mps 762 mmHg 86%
    17:00 +10°C° 0.7 mm 8 mps 763 mmHg 86%
    18:00 +10°C° 0.7 mm 8 mps 765 mmHg 85%
    19:00 +10°C° 0.3 mm 8 mps 766 mmHg 83%
    20:00 +10°C° 0.3 mm 8 mps 767 mmHg 81%
    21:00 +10°C° 0.3 mm 8 mps 768 mmHg 79%
    22:00 +10°C° 0 mm 7 mps 769 mmHg 77%
    23:00 +10°C° 0 mm 7 mps 770 mmHg 76%

    Day after tomorrow, 24 September, Monday

    Time Temperature Precipitation Wind Pressure Humidity
    00:00 +9°C° 0 mm 7 mps 770 mmHg 74%
    01:00 +9°C° 0 mm 7 mps 771 mmHg 74%
    02:00 +9°C° 0 mm 6 mps 772 mmHg 75%
    03:00 +9°C° 0 mm 6 mps 773 mmHg 75%
    04:00 +9°C° 0 mm 5 mps 773 mmHg 74%
    05:00 +9°C° 0 mm 5 mps 774 mmHg 74%
    06:00 +8°C° 0 mm 4 mps 774 mmHg 73%
    07:00 +11°C° 0 mm 4 mps 775 mmHg 68%
    08:00 +13°C° 0 mm 4 mps 775 mmHg 63%
    09:00 +14°C° 0 mm 4 mps 776 mmHg 58%
    10:00 +14°C° 0 mm 5 mps 776 mmHg 57%
    11:00 +15°C° 0 mm 5 mps 776 mmHg 56%
    12:00 +15°C° 0 mm 6 mps 777 mmHg 55%
    13:00 +15°C° 0 mm 5 mps 776 mmHg 55%
    14:00 +15°C° 0 mm 5 mps 776 mmHg 55%
    15:00 +15°C° 0 mm 5 mps 776 mmHg 55%
    16:00 +13°C° 0 mm 5 mps 777 mmHg 60%
    17:00 +12°C° 0 mm 5 mps 777 mmHg 65%
    18:00 +11°C° 0 mm 4 mps 777 mmHg 70%
    19:00 +11°C° 0 mm 4 mps 777 mmHg 70%
    20:00 +11°C° 0 mm 4 mps 778 mmHg 70%
    21:00 +10°C° 0 mm 3 mps 778 mmHg 70%
    22:00 +10°C° 0 mm 3 mps 778 mmHg 71%
    23:00 +10°C° 0 mm 3 mps 778 mmHg 71%

    25 September, Tuesday

    Time Temperature Precipitation Wind Pressure Humidity
    00:00 +9°C° 0 mm 2 mps 778 mmHg 72%
    01:00 +9°C° 0 mm 2 mps 778 mmHg 74%
    02:00 +8°C° 0 mm 2 mps 778 mmHg 76%
    03:00 +8°C° 0 mm 2 mps 778 mmHg 78%
    04:00 +8°C° 0 mm 2 mps 778 mmHg 80%
    05:00 +7°C° 0 mm 2 mps 778 mmHg 81%
    06:00 +7°C° 0 mm 2 mps 778 mmHg 82%
    07:00 +9°C° 0 mm 2 mps 779 mmHg 76%
    08:00 +12°C° 0 mm 2 mps 779 mmHg 69%
    09:00 +13°C° 0 mm 2 mps 779 mmHg 62%
    10:00 +14°C° 0 mm 2 mps 779 mmHg 57%
    11:00 +15°C° 0 mm 2 mps 778 mmHg 52%
    12:00 +16°C° 0 mm 3 mps 778 mmHg 47%
    13:00 +16°C° 0 mm 2 mps 778 mmHg 47%
    14:00 +17°C° 0 mm 2 mps 777 mmHg 46%
    15:00 +17°C° 0 mm 2 mps 776 mmHg 46%
    16:00 +15°C° 0 mm 2 mps 776 mmHg 50%
    17:00 +14°C° 0 mm 2 mps 776 mmHg 54%
    18:00 +13°C° 0 mm 2 mps 776 mmHg 58%
    19:00 +11°C° 0 mm 3 mps 776 mmHg 60%
    20:00 +10°C° 0 mm 3 mps 776 mmHg 62%
    21:00 +10°C° 0 mm 3 mps 776 mmHg 64%
    22:00 +9°C° 0 mm 3 mps 776 mmHg 65%
    23:00 +9°C° 0 mm 3 mps 775 mmHg 67%

    26 September, Wednesday

    Time Temperature Precipitation Wind Pressure Humidity
    00:00 +8°C° 0 mm 3 mps 775 mmHg 68%
    01:00 +8°C° 0 mm 3 mps 775 mmHg 69%
    02:00 +8°C° 0 mm 3 mps 774 mmHg 69%
    03:00 +7°C° 0 mm 3 mps 774 mmHg 69%
    04:00 +7°C° 0 mm 3 mps 774 mmHg 70%
    05:00 +7°C° 0 mm 3 mps 774 mmHg 70%
    06:00 +7°C° 0 mm 3 mps 774 mmHg 70%
    07:00 +9°C° 0 mm 3 mps 774 mmHg 65%
    08:00 +11°C° 0 mm 3 mps 774 mmHg 59%
    09:00 +13°C° 0 mm 3 mps 773 mmHg 54%
    10:00 +14°C° 0 mm 3 mps 773 mmHg 50%
    11:00 +16°C° 0 mm 3 mps 773 mmHg 45%
    12:00 +18°C° 0 mm 3 mps 773 mmHg 41%
    13:00 +18°C° 0 mm 3 mps 772 mmHg 41%
    14:00 +19°C° 0 mm 4 mps 772 mmHg 41%
    15:00 +19°C° 0 mm 4 mps 771 mmHg 41%
    16:00 +17°C° 0 mm 4 mps 771 mmHg 45%
    17:00 +15°C° 0 mm 4 mps 771 mmHg 49%
    18:00 +13°C° 0 mm 3 mps 771 mmHg 54%
    19:00 +12°C° 0 mm 4 mps 771 mmHg 55%
    20:00 +12°C° 0 mm 4 mps 771 mmHg 57%
    21:00 +11°C° 0 mm 4 mps 771 mmHg 59%
    22:00 +11°C° 0 mm 4 mps 771 mmHg 60%
    23:00 +11°C° 0 mm 4 mps 771 mmHg 62%

    27 September, Thursday

    Time Temperature Precipitation Wind Pressure Humidity
    00:00 +9°C° 0 mm 5 mps 770 mmHg 63%
    01:00 +9°C° 0 mm 5 mps 770 mmHg 65%
    02:00 +9°C° 0 mm 5 mps 770 mmHg 66%
    03:00 +8°C° 0 mm 5 mps 770 mmHg 67%
    04:00 +8°C° 0 mm 5 mps 769 mmHg 69%
    05:00 +8°C° 0 mm 5 mps 769 mmHg 70%
    06:00 +8°C° 0 mm 6 mps 769 mmHg 72%
    07:00 +10°C° 0 mm 6 mps 769 mmHg 68%
    08:00 +13°C° 0 mm 6 mps 769 mmHg 64%
    09:00 +16°C° 0 mm 7 mps 769 mmHg 61%
    10:00 +17°C° 0 mm 6 mps 768 mmHg 58%
    11:00 +19°C° 0 mm 6 mps 768 mmHg 55%
    12:00 +21°C° 0 mm 6 mps 768 mmHg 52%
    13:00 +21°C° 0 mm 6 mps 768 mmHg 56%
    14:00 +20°C° 0 mm 5 mps 767 mmHg 59%
    15:00 +20°C° 0 mm 5 mps 767 mmHg 63%
    16:00 +19°C° 0 mm 5 mps 768 mmHg 70%
    17:00 +17°C° 0 mm 6 mps 768 mmHg 77%
    18:00 +16°C° 0 mm 6 mps 768 mmHg 84%
    19:00 +15°C° 0.1 mm 6 mps 769 mmHg 83%
    20:00 +15°C° 0.1 mm 6 mps 769 mmHg 83%
    21:00 +14°C° 0.1 mm 6 mps 770 mmHg 83%
    22:00 +14°C° 0 mm 6 mps 770 mmHg 82%
    23:00 +14°C° 0 mm 6 mps 770 mmHg 82%
    Show more